Location: Basse Occidentale du Courleau
(48.3833°N, 4.8333°W)
Time: 04:31:33
(UTC+00:00)

SL-16 R/B - Pass Details

Date: 05 July 2020
Orbit: 839 x 850 km, 71.0° (Epoch: 11 August)

Event Time Altitude Azimuth Distance (km) Brightness Sun altitude
Exits shadow 23:00:42 23° 133° (SE) 1,724 3.3 -16.5°
Maximum altitude 23:02:31 27° 103° (ESE) 1,557 3.3 -16.6°
Drops below altitude 10° 23:07:14 10° 47° (NE) 2,479 4.9 -16.9°
Sets 23:10:00 0° 36° (NE) 3,421 5.9 -17.0°
